Year,Month,Day,Hour,Minute,Value (Times are PST for windgust in km/hr)
2021,07,07,00,09,1.60
2021,07,07,00,10,1.60
2021,07,07,00,11,1.60
2021,07,07,00,20,1.60
2021,07,07,00,21,1.60
2021,07,07,00,37,1.60
2021,07,07,00,39,1.60
2021,07,07,00,50,1.60
2021,07,07,01,14,1.60
2021,07,07,01,15,1.60
2021,07,07,01,31,1.60
2021,07,07,01,32,1.60
2021,07,07,01,34,1.60
2021,07,07,01,44,1.60
2021,07,07,01,45,1.60
2021,07,07,01,46,1.60
2021,07,07,01,47,1.60
2021,07,07,01,51,1.60
2021,07,07,01,53,3.20
2021,07,07,01,54,1.60
2021,07,07,01,55,1.60
2021,07,07,01,56,3.20
2021,07,07,01,57,3.20
2021,07,07,01,58,1.60
2021,07,07,01,59,4.80
2021,07,07,02,00,4.80
2021,07,07,02,01,1.60
2021,07,07,02,02,1.60
2021,07,07,02,03,3.20
2021,07,07,02,04,3.20
2021,07,07,02,05,1.60
2021,07,07,02,06,1.60
2021,07,07,02,07,1.60
2021,07,07,02,08,1.60
2021,07,07,02,11,1.60
2021,07,07,02,12,3.20
2021,07,07,02,13,1.60
2021,07,07,02,14,1.60
2021,07,07,02,15,1.60
2021,07,07,02,16,1.60
2021,07,07,02,17,1.60
2021,07,07,02,19,3.20
2021,07,07,02,20,4.80
2021,07,07,02,21,3.20
2021,07,07,02,23,3.20
2021,07,07,02,24,3.20
2021,07,07,02,25,3.20
2021,07,07,02,26,1.60
2021,07,07,02,27,1.60
2021,07,07,02,39,1.60
2021,07,07,02,40,1.60
2021,07,07,02,41,1.60
2021,07,07,02,42,3.20
2021,07,07,02,43,3.20
2021,07,07,02,44,1.60
2021,07,07,02,45,3.20
2021,07,07,02,46,3.20
2021,07,07,02,48,1.60
2021,07,07,02,50,1.60
2021,07,07,02,51,1.60
2021,07,07,02,52,3.20
2021,07,07,02,53,1.60
2021,07,07,02,55,3.20
2021,07,07,02,56,1.60
2021,07,07,02,57,1.60
2021,07,07,02,58,3.20
2021,07,07,02,59,3.20
2021,07,07,03,00,1.60
2021,07,07,03,02,1.60
2021,07,07,03,03,3.20
2021,07,07,03,05,1.60
2021,07,07,03,10,1.60
2021,07,07,03,11,1.60
2021,07,07,03,13,1.60
2021,07,07,03,16,1.60
2021,07,07,03,17,3.20
2021,07,07,03,18,1.60
2021,07,07,03,19,1.60
2021,07,07,03,20,1.60
2021,07,07,03,21,1.60
2021,07,07,03,22,1.60
2021,07,07,03,36,1.60
2021,07,07,03,39,1.60
2021,07,07,03,40,1.60
2021,07,07,03,43,1.60
2021,07,07,03,44,1.60
2021,07,07,03,48,1.60
2021,07,07,03,49,1.60
2021,07,07,03,50,1.60
2021,07,07,03,51,1.60
2021,07,07,03,52,1.60
2021,07,07,03,53,1.60
2021,07,07,03,54,1.60
2021,07,07,03,55,1.60
2021,07,07,03,59,3.20
2021,07,07,04,00,1.60
2021,07,07,04,16,3.20
2021,07,07,04,17,1.60
2021,07,07,04,19,1.60
2021,07,07,04,21,1.60
2021,07,07,04,22,1.60
2021,07,07,04,23,1.60
2021,07,07,04,24,1.60
2021,07,07,04,25,1.60
2021,07,07,04,27,1.60
2021,07,07,04,28,1.60
2021,07,07,04,29,3.20
2021,07,07,04,30,1.60
2021,07,07,04,32,3.20
2021,07,07,04,33,3.20
2021,07,07,04,34,1.60
2021,07,07,04,35,3.20
2021,07,07,04,36,1.60
2021,07,07,04,38,1.60
2021,07,07,04,39,3.20
2021,07,07,04,41,1.60
2021,07,07,05,04,3.20
2021,07,07,05,05,4.80
2021,07,07,05,06,3.20
2021,07,07,05,07,4.80
2021,07,07,05,08,4.80
2021,07,07,05,09,4.80
2021,07,07,05,10,4.80
2021,07,07,05,11,1.60
2021,07,07,05,14,1.60
2021,07,07,05,15,3.20
2021,07,07,05,16,3.20
2021,07,07,05,17,3.20
2021,07,07,05,18,3.20
2021,07,07,05,19,6.40
2021,07,07,05,20,3.20
2021,07,07,05,21,6.40
2021,07,07,05,22,4.80
2021,07,07,05,23,1.60
2021,07,07,05,24,3.20
2021,07,07,05,25,4.80
2021,07,07,05,26,4.80
2021,07,07,05,27,3.20
2021,07,07,05,28,3.20
2021,07,07,05,29,3.20
2021,07,07,05,30,3.20
2021,07,07,05,31,1.60
2021,07,07,05,32,3.20
2021,07,07,05,33,3.20
2021,07,07,05,34,3.20
2021,07,07,05,35,3.20
2021,07,07,05,36,4.80
2021,07,07,05,37,4.80
2021,07,07,05,38,3.20
2021,07,07,05,39,1.60
2021,07,07,05,41,3.20
2021,07,07,05,42,1.60
2021,07,07,05,43,1.60
2021,07,07,05,45,1.60
2021,07,07,05,46,3.20
2021,07,07,05,47,1.60
2021,07,07,05,48,8.10
2021,07,07,05,49,4.80
2021,07,07,05,50,3.20
2021,07,07,05,51,4.80
2021,07,07,05,52,4.80
2021,07,07,05,53,3.20
2021,07,07,05,54,3.20
2021,07,07,05,55,3.20
2021,07,07,05,56,3.20
2021,07,07,05,57,1.60
2021,07,07,05,58,4.80
2021,07,07,05,59,1.60
2021,07,07,06,00,1.60
2021,07,07,06,01,3.20
2021,07,07,06,02,4.80
2021,07,07,06,03,4.80
2021,07,07,06,04,3.20
2021,07,07,06,06,3.20
2021,07,07,06,07,3.20
2021,07,07,06,09,1.60
2021,07,07,06,11,1.60
2021,07,07,06,12,3.20
2021,07,07,06,13,3.20
2021,07,07,06,14,1.60
2021,07,07,06,17,1.60
2021,07,07,06,18,1.60
2021,07,07,06,21,1.60
2021,07,07,06,22,3.20
2021,07,07,06,23,3.20
2021,07,07,06,24,4.80
2021,07,07,06,25,3.20
2021,07,07,06,26,1.60
2021,07,07,06,27,4.80
2021,07,07,06,28,4.80
2021,07,07,06,29,4.80
2021,07,07,06,30,3.20
2021,07,07,06,31,3.20
2021,07,07,06,32,8.10
2021,07,07,06,33,3.20
2021,07,07,06,34,1.60
2021,07,07,06,37,1.60
2021,07,07,06,38,1.60
2021,07,07,06,41,3.20
2021,07,07,06,43,1.60
2021,07,07,06,45,3.20
2021,07,07,06,46,4.80
2021,07,07,06,47,3.20
2021,07,07,06,51,1.60
2021,07,07,06,52,3.20
2021,07,07,06,53,3.20
2021,07,07,06,54,3.20
2021,07,07,06,55,3.20
2021,07,07,06,56,4.80
2021,07,07,06,57,4.80
2021,07,07,06,58,4.80
2021,07,07,06,59,6.40
2021,07,07,07,00,6.40
2021,07,07,07,01,4.80
2021,07,07,07,02,6.40
2021,07,07,07,03,4.80
2021,07,07,07,04,6.40
2021,07,07,07,05,6.40
2021,07,07,07,06,6.40
2021,07,07,07,07,6.40
2021,07,07,07,08,4.80
2021,07,07,07,09,1.60
2021,07,07,07,10,1.60
2021,07,07,07,11,3.20
2021,07,07,07,12,8.10
2021,07,07,07,13,4.80
2021,07,07,07,14,6.40
2021,07,07,07,15,6.40
2021,07,07,07,16,6.40
2021,07,07,07,17,6.40
2021,07,07,07,18,6.40
2021,07,07,07,19,9.60
2021,07,07,07,20,8.10
2021,07,07,07,21,11.30
2021,07,07,07,22,11.30
2021,07,07,07,23,11.30
2021,07,07,07,24,8.10
2021,07,07,07,25,11.30
2021,07,07,07,26,12.90
2021,07,07,07,27,11.30
2021,07,07,07,28,14.50
2021,07,07,07,29,8.10
2021,07,07,07,30,8.10
2021,07,07,07,31,9.60
2021,07,07,07,32,9.60
2021,07,07,07,33,6.40
2021,07,07,07,34,8.10
2021,07,07,07,35,8.10
2021,07,07,07,36,4.80
2021,07,07,07,37,4.80
2021,07,07,07,38,4.80
2021,07,07,07,39,6.40
2021,07,07,07,40,4.80
2021,07,07,07,41,4.80
2021,07,07,07,42,4.80
2021,07,07,07,43,11.30
2021,07,07,07,44,9.60
2021,07,07,07,45,6.40
2021,07,07,07,46,4.80
2021,07,07,07,47,6.40
2021,07,07,07,48,3.20
2021,07,07,07,49,3.20
2021,07,07,07,50,4.80
2021,07,07,07,51,4.80
2021,07,07,07,52,3.20
2021,07,07,07,53,1.60
2021,07,07,07,54,1.60
2021,07,07,07,55,3.20
2021,07,07,07,56,1.60
2021,07,07,07,57,1.60
2021,07,07,07,58,1.60
2021,07,07,08,06,1.60
2021,07,07,08,08,1.60
2021,07,07,08,13,4.80
2021,07,07,08,14,8.10
2021,07,07,08,15,6.40
2021,07,07,08,16,6.40
2021,07,07,08,17,6.40
2021,07,07,08,18,6.40
2021,07,07,08,19,8.10
2021,07,07,08,20,9.60
2021,07,07,08,21,8.10
2021,07,07,08,22,9.60
2021,07,07,08,23,12.90
2021,07,07,08,24,11.30
2021,07,07,08,25,12.90
2021,07,07,08,26,9.60
2021,07,07,08,27,8.10
2021,07,07,08,28,6.40
2021,07,07,08,29,9.60
2021,07,07,08,30,4.80
2021,07,07,08,31,9.60
2021,07,07,08,32,9.60
2021,07,07,08,33,9.60
2021,07,07,08,34,8.10
2021,07,07,08,35,9.60
2021,07,07,08,36,11.30
2021,07,07,08,37,8.10
2021,07,07,08,38,8.10
2021,07,07,08,39,8.10
2021,07,07,08,40,9.60
2021,07,07,08,41,4.80
2021,07,07,08,42,4.80
2021,07,07,08,43,8.10
2021,07,07,08,44,8.10
2021,07,07,08,45,8.10
2021,07,07,08,46,6.40
2021,07,07,08,47,9.60
2021,07,07,08,48,8.10
2021,07,07,08,49,6.40
2021,07,07,08,50,6.40
2021,07,07,08,51,8.10
2021,07,07,08,52,9.60
2021,07,07,08,53,9.60
2021,07,07,08,54,12.90
2021,07,07,08,55,14.50
2021,07,07,08,56,14.50
2021,07,07,08,57,11.30
2021,07,07,08,58,8.10
2021,07,07,08,59,9.60
2021,07,07,09,00,6.40
2021,07,07,09,01,8.10
2021,07,07,09,02,9.60
2021,07,07,09,03,8.10
2021,07,07,09,04,6.40
2021,07,07,09,05,4.80
2021,07,07,09,06,6.40
2021,07,07,09,07,8.10
2021,07,07,09,08,6.40
2021,07,07,09,09,4.80
2021,07,07,09,10,6.40
2021,07,07,09,11,4.80
2021,07,07,09,12,8.10
2021,07,07,09,13,6.40
2021,07,07,09,14,8.10
2021,07,07,09,15,8.10
2021,07,07,09,16,12.90
2021,07,07,09,17,12.90
2021,07,07,09,18,9.60
2021,07,07,09,19,11.30
2021,07,07,09,20,11.30
2021,07,07,09,21,11.30
2021,07,07,09,22,9.60
2021,07,07,09,23,8.10
2021,07,07,09,24,6.40
2021,07,07,09,25,9.60
2021,07,07,09,26,8.10
2021,07,07,09,27,9.60
2021,07,07,09,28,9.60
2021,07,07,09,29,6.40
2021,07,07,09,30,6.40
2021,07,07,09,31,6.40
2021,07,07,09,32,4.80
2021,07,07,09,33,4.80
2021,07,07,09,34,6.40
2021,07,07,09,35,8.10
2021,07,07,09,36,11.30
2021,07,07,09,37,8.10
2021,07,07,09,38,4.80
2021,07,07,09,39,11.30
2021,07,07,09,40,9.60
2021,07,07,09,41,9.60
2021,07,07,09,42,11.30
2021,07,07,09,43,8.10
2021,07,07,09,44,9.60
2021,07,07,09,45,12.90
2021,07,07,09,46,11.30
2021,07,07,09,47,8.10
2021,07,07,09,48,9.60
2021,07,07,09,49,11.30
2021,07,07,09,50,8.10
2021,07,07,09,51,11.30
2021,07,07,09,52,12.90
2021,07,07,09,53,9.60
2021,07,07,09,54,11.30
2021,07,07,09,55,9.60
2021,07,07,09,56,8.10
2021,07,07,09,57,8.10
2021,07,07,09,58,3.20
2021,07,07,09,59,3.20
2021,07,07,10,00,8.10
2021,07,07,10,01,6.40
2021,07,07,10,02,12.90
2021,07,07,10,03,9.60
2021,07,07,10,04,12.90
2021,07,07,10,05,8.10
2021,07,07,10,06,8.10
2021,07,07,10,07,9.60
2021,07,07,10,08,8.10
2021,07,07,10,09,4.80
2021,07,07,10,10,12.90
2021,07,07,10,11,9.60
2021,07,07,10,12,11.30
2021,07,07,10,13,11.30
2021,07,07,10,14,4.80
2021,07,07,10,15,9.60
2021,07,07,10,16,8.10
2021,07,07,10,17,9.60
2021,07,07,10,18,9.60
2021,07,07,10,19,8.10
2021,07,07,10,20,8.10
2021,07,07,10,21,8.10
2021,07,07,10,22,9.60
2021,07,07,10,23,8.10
2021,07,07,10,24,8.10
2021,07,07,10,25,11.30
2021,07,07,10,26,11.30
2021,07,07,10,27,8.10
2021,07,07,10,28,6.40
2021,07,07,10,29,9.60
2021,07,07,10,30,8.10
2021,07,07,10,31,11.30
2021,07,07,10,32,12.90
2021,07,07,10,33,9.60
2021,07,07,10,34,9.60
2021,07,07,10,35,14.50
2021,07,07,10,36,11.30
2021,07,07,10,37,8.10
2021,07,07,10,38,4.80
2021,07,07,10,39,6.40
2021,07,07,10,40,11.30
2021,07,07,10,41,6.40
2021,07,07,10,42,11.30
2021,07,07,10,43,6.40
2021,07,07,10,44,9.60
2021,07,07,10,45,9.60
2021,07,07,10,46,9.60
2021,07,07,10,47,11.30
2021,07,07,10,48,12.90
2021,07,07,10,49,9.60
2021,07,07,10,50,6.40
2021,07,07,10,51,11.30
2021,07,07,10,52,9.60
2021,07,07,10,53,12.90
2021,07,07,10,54,6.40
2021,07,07,10,55,11.30
2021,07,07,10,56,11.30
2021,07,07,10,57,11.30
2021,07,07,10,58,17.70
2021,07,07,10,59,14.50
2021,07,07,11,00,19.30
2021,07,07,11,01,14.50
2021,07,07,11,02,16.10
2021,07,07,11,03,11.30
2021,07,07,11,04,11.30
2021,07,07,11,05,12.90
2021,07,07,11,06,11.30
2021,07,07,11,07,9.60
2021,07,07,11,08,11.30
2021,07,07,11,09,9.60
2021,07,07,11,10,11.30
2021,07,07,11,11,14.50
2021,07,07,11,12,12.90
2021,07,07,11,13,11.30
2021,07,07,11,14,12.90
2021,07,07,11,15,16.10
2021,07,07,11,16,17.70
2021,07,07,11,17,16.10
2021,07,07,11,18,8.10
2021,07,07,11,19,14.50
2021,07,07,11,20,12.90
2021,07,07,11,21,14.50
2021,07,07,11,22,11.30
2021,07,07,11,23,14.50
2021,07,07,11,24,11.30
2021,07,07,11,25,11.30
2021,07,07,11,26,8.10
2021,07,07,11,27,11.30
2021,07,07,11,28,8.10
2021,07,07,11,29,11.30
2021,07,07,11,30,9.60
2021,07,07,11,31,12.90
2021,07,07,11,32,14.50
2021,07,07,11,33,11.30
2021,07,07,11,34,11.30
2021,07,07,11,35,11.30
2021,07,07,11,36,9.60
2021,07,07,11,37,8.10
2021,07,07,11,38,9.60
2021,07,07,11,39,11.30
2021,07,07,11,40,11.30
2021,07,07,11,41,9.60
2021,07,07,11,42,11.30
2021,07,07,11,43,12.90
2021,07,07,11,44,12.90
2021,07,07,11,45,11.30
2021,07,07,11,46,16.10
2021,07,07,11,47,12.90
2021,07,07,11,48,17.70
2021,07,07,11,49,17.70
2021,07,07,11,50,20.90
2021,07,07,11,51,22.50
2021,07,07,11,52,19.30
2021,07,07,11,53,16.10
2021,07,07,11,54,19.30
2021,07,07,11,55,20.90
2021,07,07,11,56,20.90
2021,07,07,11,57,12.90
2021,07,07,11,58,19.30
2021,07,07,11,59,19.30
2021,07,07,12,00,14.50
2021,07,07,12,01,16.10
2021,07,07,12,02,19.30
2021,07,07,12,03,20.90
2021,07,07,12,04,30.60
2021,07,07,12,05,22.50
2021,07,07,12,06,29.00
2021,07,07,12,07,24.20
2021,07,07,12,08,24.20
2021,07,07,12,09,22.50
2021,07,07,12,10,17.70
2021,07,07,12,11,17.70
2021,07,07,12,12,17.70
2021,07,07,12,13,20.90
2021,07,07,12,14,16.10
2021,07,07,12,15,14.50
2021,07,07,12,16,14.50
2021,07,07,12,17,16.10
2021,07,07,12,18,20.90
2021,07,07,12,19,22.50
2021,07,07,12,20,20.90
2021,07,07,12,21,19.30
2021,07,07,12,22,14.50
2021,07,07,12,23,14.50
2021,07,07,12,24,12.90
2021,07,07,12,25,17.70
2021,07,07,12,26,17.70
2021,07,07,12,27,14.50
2021,07,07,12,28,16.10
2021,07,07,12,29,14.50
2021,07,07,12,30,16.10
2021,07,07,12,31,22.50
2021,07,07,12,32,16.10
2021,07,07,12,33,16.10
2021,07,07,12,34,16.10
2021,07,07,12,35,22.50
2021,07,07,12,36,25.70
2021,07,07,12,37,19.30
2021,07,07,12,38,22.50
2021,07,07,12,39,25.70
2021,07,07,12,40,29.00
2021,07,07,12,41,22.50
2021,07,07,12,42,24.20
2021,07,07,12,43,24.20
2021,07,07,12,44,22.50
2021,07,07,12,45,22.50
2021,07,07,12,46,20.90
2021,07,07,12,47,24.20
2021,07,07,12,48,22.50
2021,07,07,12,49,24.20
2021,07,07,12,50,24.20
2021,07,07,12,51,27.40
2021,07,07,12,52,24.20
2021,07,07,12,53,24.20
2021,07,07,12,54,20.90
2021,07,07,12,55,20.90
2021,07,07,12,56,24.20
2021,07,07,12,57,22.50
2021,07,07,12,58,24.20
2021,07,07,12,59,25.70
2021,07,07,13,00,22.50
2021,07,07,13,01,29.00
2021,07,07,13,02,24.20
2021,07,07,13,03,25.70
2021,07,07,13,04,24.20
2021,07,07,13,05,25.70
2021,07,07,13,06,17.70
2021,07,07,13,07,22.50
2021,07,07,13,08,27.40
2021,07,07,13,09,33.80
2021,07,07,13,10,37.00
2021,07,07,13,11,27.40
2021,07,07,13,12,33.80
2021,07,07,13,13,25.70
2021,07,07,13,14,33.80
2021,07,07,13,15,35.40
2021,07,07,13,16,35.40
2021,07,07,13,17,35.40
2021,07,07,13,18,35.40
2021,07,07,13,19,30.60
2021,07,07,13,20,29.00
2021,07,07,13,21,29.00
2021,07,07,13,22,41.80
2021,07,07,13,23,35.40
2021,07,07,13,24,25.70
2021,07,07,13,25,27.40
2021,07,07,13,26,25.70
2021,07,07,13,27,40.20
2021,07,07,13,28,33.80
2021,07,07,13,29,25.70
2021,07,07,13,30,17.70
2021,07,07,13,31,33.80
2021,07,07,13,32,30.60
2021,07,07,13,33,20.90
2021,07,07,13,34,24.20
2021,07,07,13,35,32.20
2021,07,07,13,36,35.40
2021,07,07,13,37,25.70
2021,07,07,13,38,33.80
2021,07,07,13,39,27.40
2021,07,07,13,40,35.40
2021,07,07,13,41,35.40
2021,07,07,13,42,33.80
2021,07,07,13,43,32.20
2021,07,07,13,44,41.80
2021,07,07,13,45,30.60
2021,07,07,13,46,14.50
2021,07,07,13,47,22.50
2021,07,07,13,48,37.00
2021,07,07,13,49,20.90
2021,07,07,13,50,24.20
2021,07,07,13,51,20.90
2021,07,07,13,52,25.70
2021,07,07,13,53,32.20
2021,07,07,13,54,40.20
2021,07,07,13,55,40.20
2021,07,07,13,56,29.00
2021,07,07,13,57,37.00
2021,07,07,13,58,35.40
2021,07,07,13,59,38.60
2021,07,07,14,00,48.30
2021,07,07,14,01,27.40
2021,07,07,14,02,29.00
2021,07,07,14,03,38.60
2021,07,07,14,04,30.60
2021,07,07,14,05,35.40
2021,07,07,14,06,40.20
2021,07,07,14,07,29.00
2021,07,07,14,08,22.50
2021,07,07,14,09,30.60
2021,07,07,14,10,22.50
2021,07,07,14,11,43.50
2021,07,07,14,12,41.80
2021,07,07,14,13,40.20
2021,07,07,14,14,29.00
2021,07,07,14,15,30.60
2021,07,07,14,16,37.00
2021,07,07,14,17,29.00
2021,07,07,14,18,20.90
2021,07,07,14,19,25.70
2021,07,07,14,20,33.80
2021,07,07,14,21,27.40
2021,07,07,14,22,32.20
2021,07,07,14,23,33.80
2021,07,07,14,24,37.00
2021,07,07,14,25,37.00
2021,07,07,14,26,38.60
2021,07,07,14,27,25.70
2021,07,07,14,28,37.00
2021,07,07,14,29,40.20
2021,07,07,14,30,29.00
2021,07,07,14,31,24.20
2021,07,07,14,32,30.60
2021,07,07,14,33,33.80
2021,07,07,14,34,27.40
2021,07,07,14,35,20.90
2021,07,07,14,36,22.50
2021,07,07,14,37,33.80
2021,07,07,14,38,33.80
2021,07,07,14,39,25.70
2021,07,07,14,40,37.00
2021,07,07,14,41,40.20
2021,07,07,14,42,29.00
2021,07,07,14,43,32.20
2021,07,07,14,44,25.70
2021,07,07,14,45,29.00
2021,07,07,14,46,37.00
2021,07,07,14,47,29.00
2021,07,07,14,48,29.00
2021,07,07,14,49,38.60
2021,07,07,14,50,30.60
2021,07,07,14,51,30.60
2021,07,07,14,52,29.00
2021,07,07,14,53,27.40
2021,07,07,14,54,22.50
2021,07,07,14,55,24.20
2021,07,07,14,56,24.20
2021,07,07,14,57,16.10
2021,07,07,14,58,20.90
2021,07,07,14,59,19.30
2021,07,07,15,00,22.50
2021,07,07,15,01,27.40
2021,07,07,15,02,17.70
2021,07,07,15,03,22.50
2021,07,07,15,04,25.70
2021,07,07,15,05,22.50
2021,07,07,15,06,24.20
2021,07,07,15,07,25.70
2021,07,07,15,08,32.20
2021,07,07,15,09,22.50
2021,07,07,15,10,30.60
2021,07,07,15,11,29.00
2021,07,07,15,12,35.40
2021,07,07,15,13,38.60
2021,07,07,15,14,29.00
2021,07,07,15,15,29.00
2021,07,07,15,16,30.60
2021,07,07,15,17,22.50
2021,07,07,15,18,17.70
2021,07,07,15,19,12.90
2021,07,07,15,20,22.50
2021,07,07,15,21,16.10
2021,07,07,15,22,17.70
2021,07,07,15,23,27.40
2021,07,07,15,24,27.40
2021,07,07,15,25,27.40
2021,07,07,15,26,29.00
2021,07,07,15,27,24.20
2021,07,07,15,28,17.70
2021,07,07,15,29,22.50
2021,07,07,15,30,19.30
2021,07,07,15,31,16.10
2021,07,07,15,32,16.10
2021,07,07,15,33,20.90
2021,07,07,15,34,12.90
2021,07,07,15,35,12.90
2021,07,07,15,36,11.30
2021,07,07,15,37,16.10
2021,07,07,15,38,14.50
2021,07,07,15,39,12.90
2021,07,07,15,40,17.70
2021,07,07,15,41,12.90
2021,07,07,15,42,14.50
2021,07,07,15,43,11.30
2021,07,07,15,44,12.90
2021,07,07,15,45,12.90
2021,07,07,15,46,17.70
2021,07,07,15,47,16.10
2021,07,07,15,48,11.30
2021,07,07,15,49,17.70
2021,07,07,15,50,12.90
2021,07,07,15,51,16.10
2021,07,07,15,52,14.50
2021,07,07,15,53,12.90
2021,07,07,15,54,16.10
2021,07,07,15,55,19.30
2021,07,07,15,56,17.70
2021,07,07,15,57,17.70
2021,07,07,15,58,17.70
2021,07,07,15,59,12.90
2021,07,07,16,00,12.90
2021,07,07,16,01,14.50
2021,07,07,16,02,11.30
2021,07,07,16,03,12.90
2021,07,07,16,04,11.30
2021,07,07,16,05,6.40
2021,07,07,16,06,8.10
2021,07,07,16,07,8.10
2021,07,07,16,08,12.90
2021,07,07,16,09,12.90
2021,07,07,16,10,17.70
2021,07,07,16,11,20.90
2021,07,07,16,12,17.70
2021,07,07,16,13,11.30
2021,07,07,16,14,14.50
2021,07,07,16,15,14.50
2021,07,07,16,16,20.90
2021,07,07,16,17,19.30
2021,07,07,16,18,16.10
2021,07,07,16,19,22.50
2021,07,07,16,20,20.90
2021,07,07,16,21,16.10
2021,07,07,16,22,17.70
2021,07,07,16,23,20.90
2021,07,07,16,24,22.50
2021,07,07,16,25,17.70
2021,07,07,16,26,17.70
2021,07,07,16,27,17.70
2021,07,07,16,28,16.10
2021,07,07,16,29,16.10
2021,07,07,16,30,14.50
2021,07,07,16,31,16.10
2021,07,07,16,32,16.10
2021,07,07,16,33,14.50
2021,07,07,16,34,24.20
2021,07,07,16,35,20.90
2021,07,07,16,36,12.90
2021,07,07,16,37,17.70
2021,07,07,16,38,20.90
2021,07,07,16,39,16.10
2021,07,07,16,40,20.90
2021,07,07,16,41,20.90
2021,07,07,16,42,20.90
2021,07,07,16,43,20.90
2021,07,07,16,44,25.70
2021,07,07,16,45,14.50
2021,07,07,16,46,16.10
2021,07,07,16,47,16.10
2021,07,07,16,48,19.30
2021,07,07,16,49,16.10
2021,07,07,16,50,27.40
2021,07,07,16,51,16.10
2021,07,07,16,52,20.90
2021,07,07,16,53,22.50
2021,07,07,16,54,20.90
2021,07,07,16,55,17.70
2021,07,07,16,56,22.50
2021,07,07,16,57,27.40
2021,07,07,16,58,33.80
2021,07,07,16,59,27.40
2021,07,07,17,00,14.50
2021,07,07,17,01,20.90
2021,07,07,17,02,17.70
2021,07,07,17,03,17.70
2021,07,07,17,04,14.50
2021,07,07,17,05,22.50
2021,07,07,17,06,20.90
2021,07,07,17,07,16.10
2021,07,07,17,08,12.90
2021,07,07,17,09,11.30
2021,07,07,17,10,16.10
2021,07,07,17,11,14.50
2021,07,07,17,12,14.50
2021,07,07,17,13,12.90
2021,07,07,17,14,12.90
2021,07,07,17,15,16.10
2021,07,07,17,16,20.90
2021,07,07,17,17,14.50
2021,07,07,17,18,16.10
2021,07,07,17,19,16.10
2021,07,07,17,20,11.30
2021,07,07,17,21,11.30
2021,07,07,17,22,9.60
2021,07,07,17,23,8.10
2021,07,07,17,24,14.50
2021,07,07,17,25,8.10
2021,07,07,17,26,8.10
2021,07,07,17,27,9.60
2021,07,07,17,28,9.60
2021,07,07,17,29,9.60
2021,07,07,17,30,14.50
2021,07,07,17,31,14.50
2021,07,07,17,32,12.90
2021,07,07,17,33,9.60
2021,07,07,17,34,9.60
2021,07,07,17,35,14.50
2021,07,07,17,36,14.50
2021,07,07,17,37,14.50
2021,07,07,17,38,14.50
2021,07,07,17,39,12.90
2021,07,07,17,40,12.90
2021,07,07,17,41,4.80
2021,07,07,17,42,8.10
2021,07,07,17,43,8.10
2021,07,07,17,44,3.20
2021,07,07,17,46,4.80
2021,07,07,17,47,3.20
2021,07,07,17,48,8.10
2021,07,07,17,49,14.50
2021,07,07,17,50,11.30
2021,07,07,17,51,24.20
2021,07,07,17,52,12.90
2021,07,07,17,53,9.60
2021,07,07,17,54,9.60
2021,07,07,17,55,9.60
2021,07,07,17,56,8.10
2021,07,07,17,57,12.90
2021,07,07,17,58,17.70
2021,07,07,17,59,22.50
2021,07,07,18,00,22.50
2021,07,07,18,01,17.70
2021,07,07,18,02,19.30
2021,07,07,18,03,22.50
2021,07,07,18,04,20.90
2021,07,07,18,05,22.50
2021,07,07,18,06,17.70
2021,07,07,18,07,17.70
2021,07,07,18,08,17.70
2021,07,07,18,09,19.30
2021,07,07,18,10,14.50
2021,07,07,18,11,22.50
2021,07,07,18,12,16.10
2021,07,07,18,13,12.90
2021,07,07,18,14,11.30
2021,07,07,18,15,9.60
2021,07,07,18,16,12.90
2021,07,07,18,17,16.10
2021,07,07,18,18,14.50
2021,07,07,18,19,14.50
2021,07,07,18,20,16.10
2021,07,07,18,21,14.50
2021,07,07,18,22,11.30
2021,07,07,18,23,14.50
2021,07,07,18,24,12.90
2021,07,07,18,25,11.30
2021,07,07,18,26,20.90
2021,07,07,18,27,17.70
2021,07,07,18,28,22.50
2021,07,07,18,29,22.50
2021,07,07,18,30,16.10
2021,07,07,18,31,12.90
2021,07,07,18,32,11.30
2021,07,07,18,33,6.40
2021,07,07,18,34,4.80
2021,07,07,18,35,8.10
2021,07,07,18,36,14.50
2021,07,07,18,37,9.60
2021,07,07,18,38,12.90
2021,07,07,18,39,6.40
2021,07,07,18,40,6.40
2021,07,07,18,41,11.30
2021,07,07,18,42,14.50
2021,07,07,18,43,16.10
2021,07,07,18,44,9.60
2021,07,07,18,45,8.10
2021,07,07,18,46,4.80
2021,07,07,18,47,4.80
2021,07,07,18,48,4.80
2021,07,07,18,49,4.80
2021,07,07,18,50,4.80
2021,07,07,18,51,3.20
2021,07,07,18,52,4.80
2021,07,07,18,53,3.20
2021,07,07,18,57,4.80
2021,07,07,18,58,9.60
2021,07,07,18,59,9.60
2021,07,07,19,00,11.30
2021,07,07,19,01,11.30
2021,07,07,19,02,12.90
2021,07,07,19,03,11.30
2021,07,07,19,04,11.30
2021,07,07,19,05,12.90
2021,07,07,19,06,12.90
2021,07,07,19,07,11.30
2021,07,07,19,08,9.60
2021,07,07,19,09,9.60
2021,07,07,19,10,9.60
2021,07,07,19,11,11.30
2021,07,07,19,12,12.90
2021,07,07,19,13,14.50
2021,07,07,19,14,9.60
2021,07,07,19,15,11.30
2021,07,07,19,16,9.60
2021,07,07,19,17,6.40
2021,07,07,19,18,6.40
2021,07,07,19,19,4.80
2021,07,07,19,20,6.40
2021,07,07,19,21,8.10
2021,07,07,19,22,6.40
2021,07,07,19,23,6.40
2021,07,07,19,24,8.10
2021,07,07,19,25,8.10
2021,07,07,19,26,8.10
2021,07,07,19,27,8.10
2021,07,07,19,28,6.40
2021,07,07,19,29,9.60
2021,07,07,19,30,9.60
2021,07,07,19,31,9.60
2021,07,07,19,32,9.60
2021,07,07,19,33,8.10
2021,07,07,19,34,8.10
2021,07,07,19,35,8.10
2021,07,07,19,36,8.10
2021,07,07,19,37,9.60
2021,07,07,19,38,11.30
2021,07,07,19,39,9.60
2021,07,07,19,40,8.10
2021,07,07,19,41,8.10
2021,07,07,19,42,8.10
2021,07,07,19,43,12.90
2021,07,07,19,44,9.60
2021,07,07,19,45,9.60
2021,07,07,19,46,11.30
2021,07,07,19,47,8.10
2021,07,07,19,48,8.10
2021,07,07,19,49,9.60
2021,07,07,19,50,8.10
2021,07,07,19,51,8.10
2021,07,07,19,52,6.40
2021,07,07,19,53,8.10
2021,07,07,19,54,6.40
2021,07,07,19,55,6.40
2021,07,07,19,56,6.40
2021,07,07,19,57,8.10
2021,07,07,19,58,8.10
2021,07,07,19,59,11.30
2021,07,07,20,00,8.10
2021,07,07,20,01,8.10
2021,07,07,20,02,9.60
2021,07,07,20,03,8.10
2021,07,07,20,04,9.60
2021,07,07,20,05,8.10
2021,07,07,20,06,6.40
2021,07,07,20,07,6.40
2021,07,07,20,08,6.40
2021,07,07,20,09,8.10
2021,07,07,20,10,6.40
2021,07,07,20,11,6.40
2021,07,07,20,13,4.80
2021,07,07,20,14,4.80
2021,07,07,20,15,6.40
2021,07,07,20,16,4.80
2021,07,07,20,17,3.20
2021,07,07,20,18,3.20
2021,07,07,20,19,4.80
2021,07,07,20,20,3.20
2021,07,07,20,21,6.40
2021,07,07,20,22,4.80
2021,07,07,20,23,3.20
2021,07,07,20,24,6.40
2021,07,07,20,25,6.40
2021,07,07,20,26,6.40
2021,07,07,20,27,4.80
2021,07,07,20,28,4.80
2021,07,07,20,29,4.80
2021,07,07,20,30,6.40
2021,07,07,20,31,6.40
2021,07,07,20,32,6.40
2021,07,07,20,33,6.40
2021,07,07,20,34,6.40
2021,07,07,20,35,6.40
2021,07,07,20,36,6.40
2021,07,07,20,37,8.10
2021,07,07,20,38,9.60
2021,07,07,20,39,9.60
2021,07,07,20,40,9.60
2021,07,07,20,41,9.60
2021,07,07,20,42,11.30
2021,07,07,20,43,8.10
2021,07,07,20,44,9.60
2021,07,07,20,45,9.60
2021,07,07,20,46,8.10
2021,07,07,20,47,6.40
2021,07,07,20,48,6.40
2021,07,07,20,49,11.30
2021,07,07,20,50,8.10
2021,07,07,20,51,8.10
2021,07,07,20,52,9.60
2021,07,07,20,53,9.60
2021,07,07,20,54,9.60
2021,07,07,20,55,9.60
2021,07,07,20,56,12.90
2021,07,07,20,57,12.90
2021,07,07,20,58,11.30
2021,07,07,20,59,9.60
2021,07,07,21,00,9.60
2021,07,07,21,01,9.60
2021,07,07,21,02,11.30
2021,07,07,21,03,12.90
2021,07,07,21,04,11.30
2021,07,07,21,05,9.60
2021,07,07,21,06,8.10
2021,07,07,21,07,11.30
2021,07,07,21,08,11.30
2021,07,07,21,09,9.60
2021,07,07,21,10,9.60
2021,07,07,21,11,9.60
2021,07,07,21,12,9.60
2021,07,07,21,13,8.10
2021,07,07,21,14,8.10
2021,07,07,21,15,9.60
2021,07,07,21,16,8.10
2021,07,07,21,17,6.40
2021,07,07,21,18,4.80
2021,07,07,21,19,4.80
2021,07,07,21,20,6.40
2021,07,07,21,21,4.80
2021,07,07,21,22,3.20
2021,07,07,21,23,1.60
2021,07,07,21,24,3.20
2021,07,07,21,25,4.80
2021,07,07,21,26,4.80
2021,07,07,21,27,4.80
2021,07,07,21,28,8.10